Temperature
13 13 13 13 13 13 13 13 13 13 13 13 14 14 14 14 14 14 14 14 14 14 14 14 15 15 15 15 15 15 15 15 15 15 15 15 15 15 15 15 15 15 15
13 13 13 13 13 13 13 13 13 13 13 13 13 13 13 13 13 14 13 13 14 14 14 14 14 15 15 15 15 15 15 14 14 14 14 14 14 15 15 15 15 15 15
12 13 13 13 12 12 13 13 13 13 13 13 13 13 13 13 13 13 13 13 13 14 14 14 14 14 14 14 14 14 14 14 14 14 14 14 14 14 14 14 14 15 15
12 12 12 12 12 12 12 12 13 13 13 13 13 13 13 13 13 13 13 13 13 13 14 14 14 14 14 14 14 14 14 14 13 13 14 14 14 14 14 14 14 14 14
11 12 12 12 12 12 12 12 12 12 12 12 12 12 13 13 13 13 13 13 13 13 13 13 14 14 14 14 14 14 13 13 13 13 13 13 14 14 14 14 14 14 14
11 11 12 11 12 12 12 12 12 12 12 12 12 12 12 12 13 13 13 12 12 13 13 13 13 13 13 13 13 13 13 13 13 13 13 13 13 13 13 13 13 14 14
11 11 11 11 11 11 11 12 12 12 12 12 12 12 12 12 12 12 12 12 12 12 12 13 13 13 13 13 13 13 13 13 13 13 13 13 13 13 13 13 13 13 13
10 11 11 11 11 11 11 11 11 11 11 11 11 12 12 12 12 12 12 12 12 12 12 12 12 12 12 12 13 13 12 12 12 12 12 12 12 12 13 13 13 13 13
10 10 10 10 10 10 11 11 11 11 11 11 11 11 11 11 11 11 11 11 12 11 12 12 12 12 12 12 12 12 12 12 12 12 12 12 12 12 12 12 12 12 12
9 10 10 10 10 10 10 10 10 11 11 11 11 11 11 11 11 11 11 11 11 11 11 11 11 11 11 11 11 12 12 12 12 12 12 12 12 12 12 12 12 12 12
9 9 9 9 10 10 10 10 10 10 10 10 10 10 10 10 11 11 11 11 11 11 11 11 11 11 11 11 11 11 11 12 12 12 12 11 11 11 11 12 12 12 12
9 9 9 9 9 9 9 10 10 10 10 10 10 10 10 10 10 10 10 10 10 10 10 10 10 10 11 11 11 11 11 11 11 11 11 11 11 11 11 11 11 11 11
9 8 8 8 8 9 9 9 9 9 9 9 9 9 9 9 10 10 10 10 10 10 10 10 10 10 10 10 10 10 10 10 11 11 11 11 11 11 11 11 11 11 11
8 8 8 8 8 8 8 8 9 9 9 9 9 9 9 9 9 9 9 9 9 9 9 9 9 9 10 10 10 10 10 10 10 10 10 10 10 10 10 10 10 10 10
8 8 8 8 8 8 8 8 8 8 8 8 8 8 8 9 9 9 9 9 9 9 9 9 9 9 9 9 9 9 9 9 9 9 9 10 10 10 9 9 9 9 9
7 7 7 7 7 7 7 7 7 7 7 8 8 8 8 8 8 8 8 8 8 8 8 8 8 8 8 9 9 9 9 9 9 9 9 9 9 9 9 9 9 9 9
7 7 7 7 7 7 7 7 7 7 7 7 7 7 7 7 7 7 7 7 7 7 7 7 8 8 8 8 8 8 8 8 8 8 8 8 8 9 9 8 8 8 8
7 7 7 6 6 6 6 6 6 6 6 6 6 6 6 7 7 7 7 7 7 7 7 7 7 7 7 7 7 7 7 7 7 7 7 8 8 8 8 8 8 8 8
7 6 6 6 6 6 6 6 5 6 6 6 6 6 6 6 6 6 6 6 6 6 6 6 6 6 7 7 7 7 7 7 7 7 7 7 7 7 7 7 7 8 8
6 6 6 6 5 5 5 5 5 5 5 5 5 5 6 6 6 6 6 6 6 6 6 6 6 6 6 6 6 6 6 6 6 6 6 6 6 6 6 7 7 7 7
5 5 5 5 5 5 4 4 4 4 5 5 5 5 5 5 5 5 5 5 5 5 5 5 5 5 5 5 5 5 5 5 5 5 5 6 6 6 6 6 6 6 6
5 5 5 5 4 4 4 4 4 4 4 4 4 4 4 5 5 5 5 5 5 5 5 5 5 5 5 5 4 4 4 4 4 5 5 5 5 5 5 5 5 5 5
5 5 4 4 4 4 3 3 3 3 3 4 4 4 4 4 4 4 4 4 4 4 4 4 4 4 4 4 4 4 3 3 3 3 4 4 4 4 4 5 5 5 5
4 4 4 4 3 3 3 3 3 3 3 3 3 3 3 3 3 3 4 4 4 4 4 4 3 3 3 3 3 3 3 3 2 2 3 3 3 3 4 4 4 4 4
4 3 3 3 3 3 2 2 2 2 2 3 3 3 3 3 3 3 3 3 3 3 3 3 3 3 3 3 3 2 2 2 2 2 1 2 3 3 3 3 3 3 3
3 3 3 2 2 2 2 2 2 2 2 2 2 2 2 2 2 2 2 2 2 2 2 2 2 2 2 2 2 2 2 2 1 1 1 1 1 2 2 2 2 2 2
Wind_Speed
5 7 8 9 10 11 12 12 12 12 12 13 13 13 13 14 14 14 14 14 14 14 14 13 13 14 14 14 14 15 14 14 14 15 16 16 16 16 16 16 15 14 16
7 9 9 11 11 11 12 12 12 12 13 13 13 14 14 14 14 14 14 14 14 14 14 14 14 14 14 14 14 13 13 12 12 12 14 15 16 16 16 16 16 14 16
8 11 10 11 12 12 12 12 12 13 13 13 14 14 14 14 14 14 14 14 14 14 14 14 14 14 14 14 13 12 12 11 10 10 11 12 13 15 15 15 16 15 15
9 11 11 12 12 12 13 13 13 13 13 13 13 14 14 14 14 14 14 14 14 14 14 14 13 13 13 13 13 12 12 11 11 11 11 12 12 13 14 15 15 15 15
10 12 12 13 13 13 13 13 13 13 13 14 14 14 14 14 14 14 14 14 14 13 13 13 13 13 13 13 12 12 12 12 13 12 13 13 12 13 13 13 14 14 14
10 12 12 13 13 13 13 13 13 13 13 13 14 14 14 14 15 14 13 13 13 13 13 13 13 12 12 13 12 12 12 12 12 11 12 12 12 12 13 13 13 13 14
9 11 12 12 12 12 12 12 12 13 13 13 14 14 14 14 14 15 14 14 13 13 13 12 12 12 12 12 11 12 12 11 12 11 12 13 13 13 13 13 13 13 13
9 10 11 12 12 11 11 11 11 12 12 13 13 13 13 13 13 13 13 13 13 13 12 12 12 11 11 11 11 11 12 11 11 11 12 12 13 13 13 13 13 12 12
9 9 9 10 10 10 11 11 11 11 12 12 12 12 12 13 13 12 12 12 12 12 12 12 12 12 11 10 9 10 11 12 12 11 11 11 12 13 13 13 12 11 11
7 7 8 8 9 9 9 11 11 11 11 11 11 11 11 12 12 11 11 11 12 12 12 12 11 11 10 9 8 9 10 11 12 11 10 11 12 12 12 12 11 11 10
6 6 6 6 7 8 9 9 10 10 10 10 9 9 9 9 10 10 11 11 11 12 11 11 11 11 10 9 9 9 9 9 11 10 10 11 12 11 11 11 10 11 10
6 5 5 5 6 6 7 7 7 7 7 7 7 7 8 9 9 9 9 9 10 10 10 10 9 9 9 8 9 9 8 9 10 9 10 11 11 10 10 10 10 10 10
7 5 5 5 6 5 5 5 5 6 6 7 7 7 8 7 7 7 7 7 7 8 7 7 7 8 8 8 8 9 9 9 9 9 10 11 10 9 9 10 10 10 10
7 6 5 5 5 5 5 4 5 5 5 6 6 6 6 5 5 5 5 5 5 5 5 6 6 7 8 8 8 8 8 8 9 9 9 10 10 9 9 8 9 9 9
7 7 6 5 4 4 4 4 4 4 5 6 5 6 6 5 4 4 5 5 5 5 5 5 6 6 7 7 8 8 8 8 8 8 9 10 10 9 9 8 8 8 8
8 7 6 5 5 5 4 3 3 5 6 6 5 5 5 5 5 4 4 4 5 5 6 6 6 5 5 6 6 7 8 8 8 8 8 9 10 10 9 8 8 8 8
9 8 7 6 5 4 4 4 4 5 6 5 5 5 5 6 5 5 4 4 4 5 6 6 5 5 4 5 5 6 7 7 8 8 8 8 8 10 10 10 9 9 9
9 9 8 6 5 4 4 4 4 5 5 5 5 5 5 5 5 5 4 3 4 4 4 3 2 3 3 3 3 3 4 5 7 8 8 8 7 8 9 9 10 10 9
9 9 8 7 6 5 4 4 4 4 5 5 5 5 5 5 5 5 4 3 3 3 3 2 2 2 3 3 3 2 2 3 4 6 6 7 7 7 7 8 9 10 10
8 9 8 8 7 5 4 3 3 3 3 4 4 5 5 4 4 5 4 3 3 3 2 2 3 3 2 2 2 2 2 2 3 3 4 5 6 6 7 7 7 7 9
9 9 9 9 7 6 5 4 3 3 3 2 3 5 5 4 4 4 3 3 3 2 2 2 2 3 2 2 2 2 2 2 1 2 3 4 5 6 7 7 7 7 7
10 10 9 9 8 7 5 4 2 3 2 2 3 4 4 4 4 3 3 3 2 2 2 2 2 1 1 2 1 1 1 2 2 1 1 2 3 5 5 6 6 6 7
9 10 9 9 9 8 6 4 4 3 3 2 2 2 2 4 4 4 3 3 2 2 2 1 1 1 1 1 2 1 1 1 1 1 1 1 1 1 3 4 5 6 6
8 7 8 9 8 8 7 7 7 5 4 3 3 3 2 3 3 4 4 3 2 2 2 1 1 1 1 0 1 2 0 1 1 1 2 1 1 1 1 2 3 4 4
7 7 7 7 8 8 7 7 6 5 3 3 4 4 3 2 3 3 3 3 2 2 2 1 1 1 1 1 0 1 1 2 1 1 2 2 2 1 1 1 2 3 3
6 6 6 7 7 7 7 7 6 6 5 6 5 4 3 2 2 3 3 3 3 2 2 1 1 1 0 0 0 0 0 0 1 1 1 2 2 2 2 1 0 1 3
Wind_Direction
96 90 87 82 84 83 80 76 72 70 70 69 65 63 64 63 61 61 59 60 62 61 61 60 61 62 63 63 62 62 63 64 67 69 68 65 65 66 66 65 68 68 71
105 101 96 87 87 85 83 79 75 74 73 71 69 66 64 62 60 61 60 59 60 59 60 60 61 62 63 63 62 62 63 62 63 67 71 67 65 65 65 64 66 71 72
98 103 101 93 88 85 83 82 78 77 75 73 70 67 65 63 60 59 58 59 60 58 58 60 61 62 62 61 61 60 59 56 52 55 64 71 68 66 65 65 67 69 70
101 104 101 97 92 87 82 80 80 80 76 73 71 69 66 64 62 60 59 59 59 59 57 58 59 61 61 60 57 55 52 45 42 50 62 66 67 67 68 67 67 68 69
97 99 101 98 93 88 83 79 77 79 78 75 72 71 68 65 64 62 60 59 58 58 58 57 58 61 61 58 54 51 46 44 49 52 59 63 64 66 68 68 68 69 70
95 98 102 99 94 89 84 80 76 75 77 76 74 72 70 66 63 62 60 58 56 56 57 57 57 61 60 56 52 47 42 44 53 53 57 62 63 66 67 67 68 68 69
95 97 103 99 95 90 85 82 78 76 75 77 77 74 70 68 66 63 59 57 54 53 54 56 57 60 58 55 50 43 39 46 60 58 56 59 60 63 65 64 64 65 67
98 98 103 100 96 93 90 85 81 77 76 75 77 74 71 68 67 64 61 59 56 53 52 52 54 56 57 55 50 43 38 45 55 58 57 58 60 58 61 62 61 62 63
94 98 99 100 98 95 91 88 84 82 79 76 76 78 74 70 67 65 61 60 58 55 54 53 52 51 55 53 48 43 42 48 50 47 55 59 64 61 60 59 57 60 62
92 93 98 103 102 97 93 91 86 85 82 79 76 78 78 74 70 66 62 61 60 57 57 53 51 49 46 46 43 36 40 51 55 47 47 59 65 63 59 57 55 56 59
106 100 95 96 96 98 98 95 91 90 87 85 80 77 77 72 71 65 63 62 60 57 56 52 49 47 42 40 35 35 44 59 62 52 45 57 62 60 57 55 54 52 56
130 119 103 93 93 95 101 102 98 94 94 89 86 75 75 72 74 71 67 62 58 54 52 47 43 39 37 35 34 37 46 56 62 57 46 56 60 56 52 52 54 51 53
143 130 115 100 100 94 90 99 92 90 88 81 82 77 77 79 79 76 71 63 55 47 41 37 40 39 39 36 40 42 46 56 63 58 46 53 57 54 51 50 50 52 53
146 140 128 111 105 101 96 93 91 87 81 75 74 80 80 74 73 72 66 60 52 45 34 36 41 39 41 38 43 45 46 58 64 62 50 53 55 53 50 49 49 52 53
152 148 144 128 119 108 97 96 94 87 88 84 76 72 77 76 75 73 65 57 49 47 38 35 39 40 41 38 41 47 49 55 63 68 58 55 54 54 48 48 47 50 49
162 156 150 145 127 115 104 94 96 97 100 97 85 76 78 79 80 78 68 55 49 44 40 42 43 40 42 45 46 47 50 51 58 64 66 59 52 54 52 48 46 44 44
164 157 156 152 131 122 118 114 105 104 105 99 95 91 82 79 80 81 76 61 53 51 50 50 46 46 44 47 44 44 51 51 57 60 61 62 57 53 51 49 48 47 45
161 160 161 157 147 136 122 114 111 112 107 106 108 99 88 81 81 84 79 69 66 66 60 61 46 43 40 35 34 32 52 52 55 58 59 58 59 57 50 49 48 45 42
164 160 160 154 153 143 126 117 110 107 106 112 113 105 95 86 85 90 85 78 73 68 57 56 47 50 51 38 31 26 43 51 55 62 62 61 61 61 55 51 49 44 41
161 158 158 154 152 140 128 120 110 101 98 106 107 111 110 101 91 91 92 85 73 69 55 54 60 56 56 42 33 32 23 47 59 73 70 65 58 54 51 50 48 43 39
162 160 162 160 159 154 156 155 151 150 142 124 115 122 122 114 102 99 96 86 77 83 87 75 70 78 51 37 40 19 9 45 56 59 68 68 60 57 51 44 44 43 36
170 168 168 167 167 165 165 161 156 144 141 127 116 123 127 117 116 118 104 103 92 94 87 82 76 77 60 33 44 54 24 5 7 19 38 61 58 57 52 39 44 43 38
175 174 175 172 171 168 155 141 133 116 114 117 134 143 125 126 128 125 117 110 109 97 113 100 98 87 98 4 32 87 119 199 329 318 344 44 42 46 51 45 43 42 32
175 173 172 170 171 168 162 165 165 165 165 172 170 160 140 132 128 120 123 116 105 95 121 139 83 101 111 92 5 16 41 147 159 314 316 331 11 2 2 25 33 37 27
167 166 168 170 173 170 172 172 170 164 157 144 145 147 148 132 126 120 118 120 112 97 100 84 64 65 89 147 176 329 357 0 350 210 272 293 321 316 342 5 15 21 17
155 160 165 170 176 173 172 173 173 165 157 152 154 160 160 154 134 134 124 115 111 110 107 102 69 78 71 92 49 28 68 8 315 307 281 292 292 283 285 269 309 352 1
Height
1522 1523 1524 1525 1526 1527 1528 1528 1529 1530 1530 1531 1531 1531 1532 1532 1532 1533 1533 1533 1534 1534 1534 1534 1534 1535 1535 1535 1536 1536 1537 1537 1537 1538 1538 1538 1538 1539 1539 1539 1539 1539 1540
1521 1522 1524 1525 1526 1527 1528 1529 1529 1530 1531 1531 1532 1532 1532 1533 1533 1534 1534 1534 1534 1535 1535 1535 1535 1536 1536 1536 1537 1537 1538 1538 1539 1539 1540 1540 1540 1540 1540 1541 1541 1541 1542
1520 1522 1524 1525 1526 1527 1528 1529 1530 1530 1531 1532 1532 1532 1533 1533 1534 1534 1535 1535 1535 1535 1535 1536 1536 1537 1537 1538 1538 1539 1539 1540 1540 1541 1541 1541 1541 1542 1542 1542 1543 1543 1543
1520 1522 1523 1525 1526 1527 1528 1529 1530 1531 1532 1532 1532 1533 1533 1534 1534 1534 1535 1535 1535 1536 1536 1536 1536 1537 1538 1539 1539 1540 1540 1541 1542 1542 1542 1542 1542 1543 1543 1544 1544 1544 1545
1520 1521 1523 1525 1526 1527 1528 1529 1530 1531 1532 1532 1533 1533 1533 1534 1534 1534 1535 1535 1536 1536 1536 1537 1537 1538 1539 1539 1540 1541 1541 1542 1542 1542 1543 1543 1543 1544 1544 1545 1545 1546 1546
1520 1521 1523 1524 1526 1527 1528 1529 1530 1531 1532 1532 1533 1533 1533 1533 1534 1534 1534 1535 1536 1536 1537 1537 1537 1538 1539 1540 1541 1541 1542 1542 1543 1543 1544 1544 1544 1545 1545 1546 1546 1547 1547
1519 1520 1522 1524 1525 1527 1528 1529 1530 1531 1532 1532 1533 1533 1533 1533 1534 1534 1534 1535 1535 1536 1537 1537 1538 1539 1539 1540 1541 1542 1543 1543 1543 1544 1544 1545 1545 1546 1546 1546 1547 1547 1548
1518 1520 1522 1523 1525 1526 1527 1528 1529 1530 1531 1532 1532 1533 1533 1534 1534 1534 1534 1535 1535 1536 1536 1537 1538 1539 1540 1540 1541 1542 1543 1543 1543 1544 1544 1545 1546 1546 1546 1547 1547 1548 1548
1518 1519 1521 1522 1524 1525 1526 1528 1529 1530 1530 1531 1532 1532 1533 1533 1534 1534 1534 1535 1535 1536 1536 1537 1538 1538 1539 1540 1541 1542 1543 1543 1543 1544 1544 1545 1546 1546 1547 1547 1547 1548 1548
1517 1518 1520 1521 1523 1524 1525 1527 1528 1529 1530 1531 1531 1532 1532 1533 1533 1534 1534 1534 1535 1535 1536 1537 1537 1538 1539 1540 1541 1542 1542 1543 1543 1544 1544 1545 1546 1546 1546 1547 1547 1548 1548
1516 1517 1519 1520 1521 1523 1524 1526 1527 1528 1529 1530 1530 1531 1531 1532 1532 1533 1533 1534 1534 1535 1536 1536 1537 1538 1539 1540 1541 1541 1541 1542 1543 1543 1544 1544 1545 1545 1546 1547 1547 1547 1548
1513 1516 1517 1519 1520 1521 1523 1524 1525 1526 1528 1528 1529 1530 1530 1531 1532 1532 1533 1533 1534 1534 1535 1536 1536 1537 1538 1539 1540 1540 1541 1541 1542 1543 1543 1544 1544 1545 1545 1546 1546 1546 1547
1512 1514 1516 1517 1519 1520 1521 1522 1524 1525 1526 1527 1528 1529 1529 1530 1531 1531 1532 1532 1533 1534 1534 1535 1535 1536 1537 1538 1538 1539 1540 1540 1540 1541 1542 1543 1543 1544 1544 1545 1545 1546 1546
1510 1512 1514 1515 1517 1518 1520 1521 1522 1523 1524 1526 1527 1527 1528 1529 1530 1530 1531 1531 1532 1533 1533 1533 1534 1535 1536 1536 1537 1538 1538 1539 1539 1540 1541 1541 1542 1543 1543 1544 1544 1544 1545
1507 1509 1511 1513 1515 1516 1518 1519 1520 1521 1523 1524 1525 1526 1527 1528 1528 1529 1530 1530 1531 1532 1532 1532 1533 1534 1534 1535 1536 1537 1537 1537 1538 1539 1539 1540 1541 1541 1542 1542 1543 1543 1543
1504 1507 1509 1511 1513 1514 1515 1517 1518 1520 1521 1522 1523 1524 1525 1526 1527 1528 1528 1529 1530 1530 1531 1531 1532 1532 1533 1533 1534 1535 1535 1536 1536 1537 1538 1538 1539 1539 1540 1540 1541 1541 1542
1501 1504 1506 1508 1510 1512 1513 1515 1516 1517 1519 1520 1521 1522 1523 1524 1525 1526 1527 1527 1528 1529 1529 1530 1530 1531 1531 1532 1532 1533 1534 1534 1535 1535 1536 1536 1537 1537 1538 1539 1539 1539 1540
1499 1501 1503 1505 1507 1509 1511 1512 1513 1515 1516 1518 1519 1520 1521 1522 1523 1524 1525 1526 1526 1527 1527 1528 1529 1529 1530 1530 1530 1531 1532 1533 1533 1534 1534 1535 1535 1536 1536 1537 1537 1538 1538
1495 1497 1499 1502 1504 1506 1508 1509 1511 1512 1514 1515 1517 1518 1519 1520 1521 1522 1523 1524 1524 1525 1526 1526 1527 1527 1528 1528 1528 1529 1530 1531 1532 1532 1533 1533 1534 1534 1534 1535 1535 1536 1536
1492 1494 1496 1498 1501 1503 1505 1506 1508 1509 1511 1513 1514 1515 1516 1518 1519 1520 1521 1521 1522 1523 1524 1525 1525 1526 1526 1526 1527 1528 1528 1529 1530 1530 1531 1532 1532 1532 1533 1533 1533 1534 1534
1489 1490 1492 1494 1496 1498 1500 1502 1503 1505 1507 1510 1511 1513 1514 1515 1516 1517 1518 1519 1520 1521 1522 1523 1524 1524 1524 1525 1526 1526 1526 1527 1528 1529 1529 1530 1530 1531 1531 1531 1531 1531 1531
1484 1486 1488 1490 1492 1494 1497 1499 1501 1503 1505 1507 1509 1510 1511 1512 1514 1515 1516 1517 1518 1519 1520 1521 1522 1522 1522 1523 1524 1524 1525 1526 1526 1527 1527 1527 1528 1528 1529 1529 1529 1529 1529
1480 1482 1484 1486 1489 1491 1493 1496 1498 1500 1501 1503 1505 1506 1508 1509 1511 1512 1513 1514 1516 1517 1518 1519 1520 1520 1520 1522 1523 1524 1524 1523 1524 1524 1525 1525 1526 1525 1526 1526 1526 1527 1527
1476 1478 1480 1483 1485 1487 1490 1491 1493 1494 1496 1498 1501 1503 1505 1506 1508 1509 1511 1512 1513 1514 1516 1517 1517 1518 1519 1519 1520 1521 1523 1522 1523 1522 1522 1523 1523 1523 1523 1523 1524 1523 1523
1473 1475 1477 1479 1481 1484 1486 1488 1490 1492 1494 1496 1497 1499 1501 1503 1504 1506 1508 1509 1510 1512 1513 1514 1515 1516 1516 1517 1518 1518 1519 1520 1520 1520 1519 1519 1520 1520 1520 1521 1521 1521 1520
1470 1472 1474 1476 1478 1480 1482 1484 1487 1488 1490 1492 1493 1495 1497 1499 1500 1503 1504 1506 1507 1509 1510 1511 1512 1513 1514 1514 1515 1516 1516 1517 1517 1517 1517 1516 1516 1516 1517 1517 1517 1517 1517